Overview Statistics Trail Chart Weather Telemetry Raw packets
 

This is the latest recevied weather packets stored in our database for station/object S51UL-6. If no packets are shown the sender has not sent any weather packets the latest 10 day(s).

<< 32 33 34 35 36 37 38 >>
Time Temp. Humidity Pressure Rain* Wind** Luminosity Snow
1788414968 16.67° C 90% 1022.1 hPa 0.51 mm - - -
1788414668 16.11° C 90% 1022 hPa 0.51 mm - - -
1788414370 16.11° C 89% 1022.3 hPa 0.51 mm - - -
1788414068 15.56° C 89% 1022.4 hPa 0.51 mm - - -
1788413769 15° C 89% 1022.2 hPa 0 mm - - -
1788413468 15° C 89% 1022.2 hPa 0 mm - - -
1788413168 15° C 89% 1022 hPa 0.51 mm - - -
1788412869 14.44° C 89% 1022.2 hPa 0.51 mm - - -
1788412568 14.44° C 89% 1022.2 hPa 0.51 mm - - -
1788412268 14.44° C 89% 1022.1 hPa 0.51 mm - - -
1788411968 14.44° C 89% 1021.9 hPa 0.51 mm - - -
1788411669 14.44° C 88% 1021.8 hPa 0.51 mm - - -
1788411369 14.44° C 88% 1021.9 hPa 0.51 mm - - -
1788411068 14.44° C 88% 1021.8 hPa 1.02 mm - - -
1788410469 14.44° C 88% 1021.7 hPa 2.03 mm - - -
1788410169 14.44° C 88% 1021.6 hPa 2.03 mm - - -
1788409869 14.44° C 88% 1021.6 hPa 2.03 mm - - -
1788409569 15° C 88% 1021.8 hPa 1.52 mm - - -
1788409269 15° C 88% 1021.6 hPa 1.52 mm - - -
1788408669 15° C 88% 1021.5 hPa 1.52 mm - - -
1788408369 15.56° C 88% 1021.3 hPa 1.52 mm - - -
1788408069 15.56° C 88% 1021.4 hPa 1.52 mm - - -
1788406869 15.56° C 87% 1021.2 hPa 0 mm - - -
1788406269 15.56° C 87% 1021.1 hPa 0 mm - - -
1788405970 16.11° C 87% 1021.1 hPa 0 mm - - -

* Rain latest hour (hover to see other rain measurements)
** Current wind speed in m/s (hover to see current wind gust speed)